星链-2614 (STARLINK-2614 )

导读

STARLINK-2614是美国SpaceX公司星链(Starlink)星座中的一颗低轨通信卫星,于2021年5月4日发射升空。作为星链项目的量产卫星,它采用平板设计,搭载Ku/Ka波段通信载荷与氪工质霍尔推进器,具备自主避撞能力,旨在为全球提供高速宽带互联网服务,设计使用寿命约5-7年,退役后会再入大气层销毁。

Basic Information
目录编号:
48380
目录名称:
STARLINK-2614
国际标识:
2021-038AD
轨道中心:
EARTH
卫星名称:
星链-2614
卫星全名:
星链-2614 (STARLINK-2614 )
卫星状态:
在轨 (已飞行1956 天)
发射日期:
2021-05-04 UTC
国别 :
美国 (US)
星等 :
--
This satellite is enrolled in the Space Conjunction Data Service (SCDS) and the current flight risk assessment level is: No High Risk
Orbit Information
数据来源 国际轨道数据 AOE轨道数据
星历时间 2026-09-11T14:44:26+0800
5小时前
查看轨道信息
2026-09-04T23:00:00+0800
6天前
查看轨道信息
半长轴 6848.867km 6848.818km
偏心率 0.000085 0.0001407
轨道倾角 53.157° 53.158°
近地点辐角 109.660° 108.846°
升交点赤经 201.936° 232.924°
平近点角 250.449° 249.594°
近地点 470.147km 469.717km
远地点 471.313km 471.645km
周期 94.013分钟 94.012分钟
每日圈数 15.317034 15.317201
Detailed Information
固有亮度:
5
最大亮度:
2.5
卫星平台:
Starlink V1.0
覆盖范围:
全球
运营商:
太空探索技术公司
运营商所在国:
美国
制造商(研发单位):
太空探索技术公司
制造商所在国:
美国
使用方式:
暂无
Satellite Introduction
星链(Starlink)计划是由太空探索技术公司(SpaceX)提出的一个巨型低轨卫星互联网星座项目,计划在2019年至2024年间在太空搭建由约1.2万颗卫星组成的“星链”网络,其中1584颗将部署在地球上空550千米处的近地轨道,并从2020年开始工作。该卫星仍在工作。
2D Orbit Map
3D Orbit Map
Orbit Altitude Analysis Chart
Orbit Inclination Analysis Chart
Orbit Comprehensive Analysis Chart
View Comprehensive Chart
Conjunction Data List
Event ID Objects TCA Miss Dist (km) Collision Risk Probability Collision Risk Index (CRI) Action
CDM_260911-013004-838006-238322
2026-09-11T
01:30:24+0000
0.960 km
远距离
9.204276E-6 低风险 0.54
CDM_260912-134104-838006-414621
2026-09-12T
13:41:10+0000
1.980 km
极远距离
2.61143E-6 低风险 0.43
CDM_260912-103404-838005-323121
2026-09-12T
10:34:34+0000
2.595 km
极远距离
1.510056E-6 低风险 0.39
CDM_260911-132304-838006-965421
2026-09-11T
13:23:18+0000
2.682 km
极远距离
1.361905E-6 低风险 0.38
CDM_260912-155704-838006-921321
2026-09-12T
15:57:19+0000
2.602 km
极远距离
1.315885E-6 低风险 0.37
CDM_260912-081304-838005-323121
2026-09-12T
08:13:32+0000
2.861 km
极远距离
1.306715E-6 低风险 0.37
CDM_260913-020804-838005-306821
2026-09-13T
02:08:03+0000
2.933 km
极远距离
1.287661E-6 低风险 0.37
CDM_260913-060304-838005-306821
2026-09-13T
06:03:08+0000
2.977 km
极远距离
1.263364E-6 低风险 0.37
CDM_260913-025704-838006-765821
2026-09-13T
02:57:52+0000
2.945 km
极远距离
1.18671E-6 低风险 0.36
CDM_260912-112404-838005-367921
2026-09-12T
11:24:52+0000
2.956 km
极远距离
1.042113E-6 低风险 0.35
Miss Distance Evolution Trend with All Objects
Collision Probability Evolution Trend with All Objects